Terug naar catalogus

YUNHAI 2-2A

ActiefWeerLEO
NORAD 59280·PAYLOAD·🇨🇳 China

Gelanceerd Mar 21, 2024 vanaf Jiuquan Satellite Launch Center

Loading…

Volgende Passages (komende 24 uur)

TLE

VersSource: Space-Track

Epoch: Sep 14, 2026, 14:39 UTC

1 59280U 24052A   26257.61071737 -.00000097  00000-0  25634-4 0  9992
2 59280  50.0093  63.7468 0011845 100.0079 260.2173 14.27986113111009

Volg YUNHAI 2-2A in realtime met AllMySat

Download on the App Store